Retour au catalogue

STARLINK-35378

ActifCommunicationsSSO
NORAD 65794·PAYLOAD·🇺🇸 United States

Lancé Sep 26, 2025 depuis Vandenberg Space Force Base

Loading…

Prochains Passages (prochaines 24 heures)

TLE

FraisSource: CelesTrak SupGP

Époque: Sep 14, 2026, 21:18 UTC

1 65794C 25218D   26257.88798611  .00030024  00000+0  93222-3 0  2575
2 65794  97.2844 115.3928 0001683  92.5598  41.5728 15.33416786    14

Suivez STARLINK-35378 en temps réel avec AllMySat

Download on the App Store